Flag Weather past 2 weeks in London, Ontario, Canada

Now
21 °F

Mostly cloudy.


Feels Like: 15 °F
Forecast: N/A
Wind: 5 mph from West

Location: London Weather Station

Current Time: Nov 28, 2014 at 6:19:25 PM

Latest Report: Nov 28, 2014 at 5:00 PM


Visibility: 15 mi

Pressure: 30.24 "Hg

Humidity: 68%

Dew point: 12 °F

Location of LondonLocation

Historic Weather in London — Graph

°F

London temperature yesterday

Maximum temperature yesterday: 34 °F (at 12:00 PM)
Minimum temperature yesterday: 23 °F (at 11:00 PM)
Average temperature yesterday: 29 °F

Past Weeks' High & Low Weather Summary

 TemperatureHumidityPressure
High55 °F (Nov 24, 6:00 AM)100% (Nov 16, 8:50 PM)30.48 "Hg (Nov 16, 8:50 PM)
Low12 °F (Nov 18, 5:00 AM)49% (Nov 21, 3:00 PM)29.13 "Hg (Nov 24, 5:00 AM)
Average29 °F80%30.01 "Hg
* Reported Nov 13 5:00 PM — Nov 28 5:00 PM, London, Weather by CustomWeather, © 2014

Note: Actual official high and low records may vary slightly from our data, if they occured in-between our weather recording intervals... More about our weather records

Advertising

London weather history for previous 24 hours

 ConditionsComfort  
Time TempWeatherWind HumidityBarometerVisibility
5:00 PM
Nov 28
21 °FMostly cloudy.5 mph68%30.24 "Hg15 mi
4:00 PM21 °FOvercast.9 mph68%30.24 "Hg15 mi
3:00 PM21 °FSnow flurries. Overcast.7 mph63%30.25 "Hg15 mi
2:00 PM21 °FLight snow. Mostly cloudy.9 mph68%30.27 "Hg15 mi
1:00 PM21 °FSnow flurries. Mostly cloudy.10 mph68%30.27 "Hg15 mi
12:00 PM21 °FSnow flurries. Mostly cloudy.10 mph68%30.28 "Hg15 mi
11:00 AM21 °FSnow flurries. More clouds than sun.9 mph74%30.31 "Hg15 mi
10:00 AM21 °FSnow flurries. Overcast.10 mph74%30.33 "Hg12 mi
9:00 AM19 °FSnow flurries. Overcast.12 mph73%30.33 "Hg12 mi
8:00 AM19 °FSnow flurries. Overcast.14 mph73%30.32 "Hg12 mi
7:00 AM19 °FSnow flurries. Overcast.10 mph79%30.32 "Hg8 mi
6:00 AM19 °FSnow flurries. Overcast.7 mph79%30.31 "Hg8 mi
5:00 AM19 °FSnow flurries. Overcast.8 mph79%30.30 "Hg12 mi
4:00 AM19 °FSnow flurries. Passing clouds.13 mph68%30.29 "Hg15 mi
3:00 AM19 °FSnow flurries. Passing clouds.10 mph68%30.27 "Hg12 mi
2:00 AM21 °FSnow flurries. Passing clouds.10 mph68%30.25 "Hg12 mi
1:00 AM23 °FSnow flurries. Overcast.14 mph63%30.25 "Hg10 mi
12:00 AM23 °FSnow flurries. Passing clouds.8 mph74%30.24 "Hg10 mi
11:00 PM
Nov 27
23 °FSnow flurries. Partly cloudy.13 mph80%30.24 "Hg8 mi
10:00 PM25 °FSnow flurries. Mostly cloudy.14 mph86%30.23 "Hg1 mi
9:00 PM25 °FSnow flurries. Partly cloudy.10 mph86%30.22 "Hg10 mi
8:00 PM27 °FSnow flurries. Mostly cloudy.12 mph86%30.21 "Hg2 mi
7:00 PM27 °FSnow flurries. Mostly cloudy.14 mph93%30.18 "Hg3 mi
6:00 PM28 °FSnow flurries. Mostly cloudy.13 mph93%30.14 "Hg2 mi
Weather by CustomWeather, © 2014

See weather overviewHow to use our weather pages